Régionale Sprint - Les Glissoires (Avion) - B

Date : 14/11/2010

Place Nom Licence Catégorie Club Temps Points
1 DESRUMAUX Marie 14227 D21 5906HF 0:20:11 4516
2 KIRILOV Aurélie 20629 D21 5906HF 0:21:59 4146
3 LAMINETTE Pauline 14911 D18 5907HF 0:22:00 4143
4 ROBYN Laurence 10766 D40 5906HF 0:22:08 4118
5 VADUREL Pauline 19241 D20 5907HF 0:22:24 4069
6 CUVILLIERS Perrine 18632 D18 5907HF 0:23:09 3937
7 ROUX Catherine 13270 D40 6205HF 0:23:30 3878
8 TANTART Delphine 19136 D18 5907HF 0:26:27 3446
9 VANDOMME Elodie 23560 D21 6208HF 0:27:03 3369
10 DEPERSIN Isabelle 17899 D35 5907HF 0:28:06 3243
11 DECARPIGNY Gwladys 6995 D21 5907HF 0:28:14 3228
12 LANQUETIN Céline 18611 D18 5907HF 0:29:24 3100
13 GERBEAUX Marie-jeanne 22417 D55 6205HF 0:30:41 2970
14 ARROQUI Anne-sophie 23424 D40 5909HF 0:32:16 2825
15 GOURLAIN Marguerite-marie 19155 D40 6205HF 0:33:00 2762
16 VANOVERBERGHE Nathalie 22237 D40 6208HF 0:34:15 2661
17 POULAIN Odile 1948 D45 5908HF 0:34:39 2630
18 PASSEPONT Audrey 22418 D21 6205HF 0:34:40 2629
19 PECQUEUR Sylvie 20425 D45 5906HF 0:36:02 2529
20 GRENOUILLAT Annick 13087 D45 5907HF 0:36:46 2479
21 JUDAS Sylvaine 13635 D55 6208HF 0:38:03 2395
22 CLAVEL Nathalie 22803 D40 5907HF 0:47:45 1909
23 LUDEWIG-JAMES Carol 15894 D70 5907HF 0:52:28 1737
24 DE BLAERE Corinne 23842 D40 5906HF 0:52:35 1733
MERCIER Agnès 23079 D21 5907HF pm 0